HG8GL Weather Reports


time (UTC)temp
C
wind
direction
speed
KPH
gust
KPH
rain 1hr
cm
rain 24hr
cm
rain mn
cm
humidity
%
barometer
mb
20260506084009 22 177 0.0 0.0 0.00 0.00 0.00 42 1012.2
20260506083512 22 158 0.0 0.0 0.00 0.00 0.00 42 1013.0
20260506083009 22 158 0.0 0.0 0.00 0.00 0.00 42 1013.0
20260506082513 23 166 0.0 0.0 0.00 0.00 0.00 42 1012.8
20260506082011 22 183 0.0 0.0 0.00 0.00 0.00 43 1012.0
20260506081510 22 221 0.0 0.0 0.00 0.00 0.00 43 1012.0
20260506081008 22 242 0.0 0.0 0.00 0.00 0.00 43 1012.1
20260506073509 21 212 0.0 0.0 0.00 0.00 0.00 45 1012.0
20260506073009 21 161 0.0 0.0 0.00 0.00 0.00 46 1012.0
20260506072511 21 227 0.0 0.0 0.00 0.00 0.00 46 1012.1
20260506072010 21 243 0.0 0.0 0.00 0.00 0.00 47 1013.0
20260506071508 21 169 0.0 0.0 0.00 0.00 0.00 48 1013.0
20260506071009 20 158 0.0 0.0 0.00 0.00 0.00 47 1013.0
20260506062511 18 199 0.0 0.0 0.00 0.00 0.00 54 1012.9
20260506062011 18 189 0.0 0.0 0.00 0.00 0.00 54 1012.0
20260506061509 18 171 0.0 0.0 0.00 0.00 0.00 55 1012.0
20260506061008 18 158 0.0 0.0 0.00 0.00 0.00 55 1012.2
20260506051008 15 160 0.0 0.0 0.00 0.00 0.00 72 1012.2
20260506044508 13 170 0.0 0.0 0.00 0.00 0.00 74 1012.0
20260506044009 13 177 0.0 0.0 0.00 0.00 0.00 74 1012.0
20260506043510 13 160 0.0 0.0 0.00 0.00 0.00 74 1012.0
20260506042011 12 151 0.0 0.0 0.00 0.00 0.00 74 1012.0
20260506041008 12 159 0.0 0.0 0.00 0.00 0.00 74 1012.0
20260506040009 12 163 0.0 0.0 0.00 0.00 0.00 74 1012.0
20260506035507 12 158 0.0 0.0 0.00 0.00 0.00 74 1012.0
20260506035009 12 165 0.0 0.0 0.00 0.00 0.00 73 1012.0
20260506034508 12 161 0.0 0.0 0.00 0.00 0.00 73 1012.0
20260506034010 12 168 0.0 0.0 0.00 0.00 0.00 72 1012.0
20260506033508 12 161 0.0 0.0 0.00 0.00 0.00 72 1012.0
20260506033008 12 162 0.0 0.0 0.00 0.00 0.00 72 1012.0
20260506032507 12 167 0.0 0.0 0.00 0.00 0.00 71 1012.0
20260506032008 12 165 0.0 0.0 0.00 0.00 0.00 71 1012.0
20260506031510 12 161 0.0 0.0 0.00 0.00 0.00 70 1012.0
20260506031008 12 158 0.0 0.0 0.00 0.00 0.00 69 1012.0
20260506025511 12 162 0.0 0.0 0.00 0.00 0.00 68 1012.0
20260506025009 12 158 0.0 0.0 0.00 0.00 0.00 68 1012.0
20260506024511 12 172 0.0 0.0 0.00 0.00 0.00 67 1012.0
20260506024009 12 158 0.0 0.0 0.00 0.00 0.00 66 1012.0
20260506023508 12 169 0.0 0.0 0.00 0.00 0.00 65 1012.0
20260506023009 12 179 0.0 0.0 0.00 0.00 0.00 65 1012.0
20260506022511 12 179 0.0 0.0 0.00 0.00 0.00 65 1012.1
20260506022010 12 161 0.0 0.0 0.00 0.00 0.00 65 1013.0
20260506021510 12 176 0.0 0.0 0.00 0.00 0.00 65 1013.0
20260506021011 12 180 0.0 0.0 0.00 0.00 0.00 64 1013.0
20260506020008 12 158 0.0 0.0 0.00 0.00 0.00 63 1013.0
20260506015508 12 158 0.0 0.0 0.00 0.00 0.00 63 1013.0
20260506015008 12 158 0.0 0.0 0.00 0.00 0.00 63 1012.0
20260506014507 12 180 0.0 0.0 0.00 0.00 0.00 62 1012.0
20260506013509 12 202 0.0 0.0 0.00 0.00 0.00 61 1013.0
20260506013010 12 220 0.0 0.0 0.00 0.00 0.00 61 1013.0
20260506012008 13 191 0.0 0.0 0.00 0.00 0.00 60 1012.0
20260506011509 13 169 0.0 0.0 0.00 0.00 0.00 60 1012.0
20260506011010 13 176 0.0 0.0 0.00 0.00 0.00 59 1012.0
20260506010008 13 180 0.0 0.0 0.00 0.00 0.00 58 1012.0
20260506005509 13 180 0.0 0.0 0.00 0.00 0.00 57 1012.0
20260506005008 13 180 0.0 0.0 0.00 0.00 0.00 57 1012.0
20260506004508 13 202 0.0 0.0 0.00 0.00 0.00 56 1012.0
20260506004008 14 202 0.0 0.0 0.00 0.00 0.00 56 1012.0
20260506003509 14 202 0.0 0.0 0.00 0.00 0.00 55 1012.0
20260506003009 14 213 0.0 0.0 0.00 0.00 0.00 55 1012.0
20260506002509 14 236 0.0 0.0 0.00 0.00 0.00 55 1012.0
20260506002009 15 232 0.0 0.0 0.00 0.00 0.00 55 1012.0
20260506001509 15 202 0.0 0.0 0.00 0.00 0.00 54 1012.0
20260506001008 15 233 0.0 0.0 0.00 0.00 0.00 54 1012.0
20260506000008 15 248 0.0 0.0 0.00 0.00 0.00 55 1012.0
20260505235508 15 235 0.0 0.0 0.00 0.00 0.00 55 1012.0
20260505235008 15 233 0.0 0.0 0.00 0.00 0.00 56 1012.0
20260505234509 15 241 0.0 0.0 0.00 0.00 0.00 55 1012.0
20260505233509 15 223 0.0 0.0 0.00 0.00 0.00 56 1012.0
20260505233010 15 255 0.0 0.0 0.00 0.00 0.00 55 1012.0
20260505232010 15 247 0.0 0.0 0.00 0.00 0.00 55 1012.0
20260505230008 15 248 0.0 0.0 0.00 0.00 0.00 55 1012.0
20260505225510 14 227 0.0 0.0 0.00 0.00 0.00 51 1012.0
20260505225008 14 218 0.0 0.0 0.00 0.00 0.00 49 1012.0
20260505223009 15 202 0.0 0.0 0.00 0.00 0.00 47 1012.0
20260505222508 15 202 0.0 0.0 0.00 0.00 0.00 47 1012.0
20260505222008 15 202 0.0 0.0 0.00 0.00 0.00 46 1012.0
20260505221508 16 180 0.0 0.0 0.00 0.00 0.00 46 1012.0
20260505221008 16 191 0.0 0.0 0.00 0.00 0.00 45 1012.0
20260505220008 16 202 0.0 0.0 0.00 0.00 0.00 45 1012.0
20260505215507 16 208 0.0 0.0 0.00 0.00 0.00 44 1012.0
20260505214508 17 229 0.0 0.0 0.00 0.00 0.00 44 1012.0
20260505214011 17 244 0.0 0.0 0.00 0.00 0.00 44 1012.0
20260505213509 17 253 0.0 0.0 0.00 0.00 0.00 44 1012.0
20260505213008 17 264 0.0 0.0 0.00 0.00 0.00 44 1012.0
20260505212508 17 252 0.0 0.0 0.00 0.00 0.00 44 1012.0
20260505212008 17 252 0.0 0.0 0.00 0.00 0.00 43 1012.0
20260505211508 18 251 0.0 0.0 0.00 0.00 0.00 43 1012.0
20260505211010 18 256 0.0 0.0 0.00 0.00 0.00 43 1012.0
20260505210011 18 254 0.0 0.0 0.00 0.00 0.00 43 1012.0
20260505205510 18 262 0.0 0.0 0.00 0.00 0.00 42 1012.0
20260505205009 18 281 0.0 0.0 0.00 0.00 0.00 41 1012.0
20260505204510 18 269 0.0 0.0 0.00 0.00 0.00 40 1012.0
20260505204009 18 275 0.0 0.0 0.00 0.00 0.00 39 1012.0
20260505203509 18 257 0.0 0.0 0.00 0.00 0.00 38 1012.0
20260505203008 19 276 0.0 0.0 0.00 0.00 0.00 37 1012.0
20260505202509 19 273 0.0 0.0 0.00 0.00 0.00 37 1012.0
20260505202008 19 281 0.0 0.0 0.00 0.00 0.00 36 1012.0
20260505201508 19 263 0.0 0.0 0.00 0.00 0.00 35 1012.0
20260505201010 19 267 0.0 0.0 0.00 0.00 0.00 35 1012.0
20260505200008 19 256 0.0 0.0 0.00 0.00 0.00 34 1012.0
20260505195509 19 244 0.0 0.0 0.00 0.00 0.00 34 1011.9
20260505195008 19 248 0.0 0.0 0.00 0.00 0.00 34 1011.0
20260505194508 19 257 0.0 0.0 0.00 0.00 0.00 34 1011.0
20260505194008 19 248 0.0 0.0 0.00 0.00 0.00 34 1011.0
20260505193508 19 249 0.0 0.0 0.00 0.00 0.00 34 1011.0
20260505193009 18 248 0.0 0.0 0.00 0.00 0.00 34 1011.0
20260505192507 18 254 0.0 0.0 0.00 0.00 0.00 34 1010.8
20260505192009 18 251 0.0 0.0 0.00 0.00 0.00 34 1010.0
20260505191508 18 257 0.0 0.0 0.00 0.00 0.00 34 1010.0
20260505190008 18 248 0.0 0.0 0.00 0.00 0.00 34 1010.0
20260505185508 18 202 0.0 0.0 0.00 0.00 0.00 34 1009.9
20260505184507 19 202 0.0 0.0 0.00 0.00 0.00 33 1009.0
20260505184008 20 202 0.0 0.0 0.00 0.00 0.00 32 1009.1
20260505183508 20 202 0.0 0.0 0.00 0.00 0.00 32 1010.0
20260505183008 20 202 0.0 0.0 0.00 0.00 0.00 31 1010.0
20260505182508 21 158 0.0 0.0 0.00 0.00 0.00 30 1010.1
20260505182009 21 177 0.0 0.0 0.00 0.00 0.00 29 1011.0
20260505181508 21 180 0.0 0.0 0.00 0.00 0.00 28 1011.0
20260505181008 22 180 0.0 0.0 0.00 0.00 0.00 27 1010.9
20260505175510 23 226 0.0 0.0 0.00 0.00 0.00 25 1010.0
20260505175009 23 233 0.0 0.0 0.00 0.00 0.00 25 1010.0
20260505174509 23 236 0.0 0.0 0.00 0.00 0.00 25 1010.0
20260505174009 23 216 0.0 0.0 0.00 0.00 0.00 24 1010.0
20260505173510 24 218 0.0 0.0 0.00 0.00 0.00 24 1010.0
20260505173008 24 219 0.0 0.0 0.00 0.00 0.00 24 1010.0
20260505172508 25 219 0.0 0.0 0.00 0.00 0.00 24 1010.2
20260505172009 25 247 0.0 0.0 0.00 0.00 0.00 23 1011.0
20260505171507 25 203 0.0 0.0 0.00 0.00 0.00 23 1011.0
20260505170009 25 229 0.0 0.0 0.00 0.00 0.00 23 1010.0
20260505165509 25 241 0.0 0.0 0.00 0.00 0.00 22 1010.0
20260505165011 26 236 0.0 0.0 0.00 0.00 0.00 22 1010.0
20260505164508 26 221 0.0 0.0 0.00 0.00 0.00 22 1010.0
20260505164010 26 230 0.0 0.0 0.00 0.00 0.00 22 1010.0
20260505163510 26 238 0.0 0.0 0.00 0.00 0.00 22 1010.0
20260505163010 26 220 0.0 0.0 0.00 0.00 0.00 22 1010.0
20260505162509 26 217 0.0 0.0 0.00 0.00 0.00 22 1010.0
20260505162009 27 232 0.0 0.0 0.00 0.00 0.00 22 1010.0
20260505153010 27 226 0.0 0.0 0.00 0.00 0.00 21 1010.0
20260505152509 27 171 0.0 0.0 0.00 0.00 0.00 21 1010.1
20260505152008 27 158 0.0 0.0 0.00 0.00 0.00 21 1011.0
20260505151511 27 219 0.0 0.0 0.00 0.00 0.00 22 1011.0
20260505151008 27 209 0.0 0.0 0.00 0.00 0.00 21 1011.0
20260505125011 28 167 0.0 0.0 0.00 0.00 0.00 20 1012.0
20260505124508 29 137 0.0 0.0 0.00 0.00 0.00 21 1012.0
20260505124010 29 167 0.0 0.0 0.00 0.00 0.00 20 1012.0
20260505123511 29 207 0.0 0.0 0.00 0.00 0.00 20 1012.0
20260505123009 29 235 0.0 0.0 0.00 0.00 0.00 20 1012.0
20260505122511 29 162 0.0 0.0 0.00 0.00 0.00 21 1012.0
20260505122011 29 180 0.0 0.0 0.00 0.00 0.00 21 1012.0
20260505121508 28 155 0.0 0.0 0.00 0.00 0.00 22 1012.0
20260505121012 28 166 0.0 0.0 0.00 0.00 0.00 21 1012.2
20260505120008 28 158 0.0 0.0 0.00 0.00 0.00 21 1013.0
20260505115508 28 151 0.0 0.0 0.00 0.00 0.00 22 1012.8
20260505115008 28 158 0.0 0.0 0.00 0.00 0.00 21 1012.0
20260505114509 28 254 0.0 0.0 0.00 0.00 0.00 21 1012.0
20260505114011 28 172 0.0 0.0 0.00 0.00 0.00 22 1012.0
20260505113510 28 166 0.0 0.0 0.00 0.00 0.00 22 1012.0
20260505113008 28 199 0.0 0.0 0.00 0.00 0.00 22 1012.0
20260505112010 28 226 0.0 0.0 0.00 0.00 0.00 22 1013.0
20260505111507 28 156 0.0 0.0 0.00 0.00 0.00 23 1013.0
20260505111008 28 167 0.0 0.0 0.00 0.00 0.00 22 1013.0
20260505102009 28 158 0.0 0.0 0.00 0.00 0.00 24 1014.0
20260505101509 27 168 0.0 0.0 0.00 0.00 0.00 25 1014.0
20260505101009 27 150 0.0 0.0 0.00 0.00 0.00 25 1013.8
20260505100008 27 151 0.0 0.0 0.00 0.00 0.00 26 1013.0
20260505095509 27 159 0.0 0.0 0.00 0.00 0.00 26 1013.2
20260505095009 27 169 0.0 0.0 0.00 0.00 0.00 27 1014.0
20260505094509 27 144 0.0 0.0 0.00 0.00 0.00 27 1014.0
20260505094010 26 163 0.0 0.0 0.00 0.00 0.00 27 1014.0
20260505093509 26 169 0.0 0.0 0.00 0.00 0.00 27 1014.0
20260505093008 26 178 0.0 0.0 0.00 0.00 0.00 26 1014.0
20260505092511 26 162 0.0 0.0 0.00 0.00 0.00 27 1014.0
20260505092011 26 174 0.0 0.0 0.00 0.00 0.00 27 1014.0
20260505091508 26 165 0.0 0.0 0.00 0.00 0.00 29 1014.0
20260505091008 26 158 0.0 0.0 0.00 0.00 0.00 29 1014.0
20260505090008 25 202 0.0 0.0 0.00 0.00 0.00 28 1014.0
20260505085510 25 158 0.0 0.0 0.00 0.00 0.00 28 1014.0
20260505085010 25 165 0.0 0.0 0.00 0.00 0.00 28 1014.0
20260505084510 25 180 0.0 0.0 0.00 0.00 0.00 29 1014.0